Year,Month,Day,Hour,Minute,Value (Times are PST for windgust in km/hr)
2019,08,20,00,07,1.60
2019,08,20,02,41,1.60
2019,08,20,04,00,1.60
2019,08,20,04,34,1.60
2019,08,20,04,50,1.60
2019,08,20,04,59,3.20
2019,08,20,05,03,4.80
2019,08,20,05,04,3.20
2019,08,20,05,10,1.60
2019,08,20,07,19,3.20
2019,08,20,07,20,1.60
2019,08,20,07,21,1.60
2019,08,20,07,43,3.20
2019,08,20,07,44,3.20
2019,08,20,07,47,1.60
2019,08,20,07,51,1.60
2019,08,20,07,52,6.40
2019,08,20,07,54,1.60
2019,08,20,07,59,4.80
2019,08,20,08,00,1.60
2019,08,20,08,04,4.80
2019,08,20,08,05,1.60
2019,08,20,08,07,3.20
2019,08,20,08,08,1.60
2019,08,20,08,09,3.20
2019,08,20,08,10,6.40
2019,08,20,08,14,1.60
2019,08,20,08,15,3.20
2019,08,20,08,16,6.40
2019,08,20,08,17,4.80
2019,08,20,08,18,6.40
2019,08,20,08,34,1.60
2019,08,20,08,36,3.20
2019,08,20,08,37,4.80
2019,08,20,08,38,6.40
2019,08,20,08,39,1.60
2019,08,20,08,40,1.60
2019,08,20,08,43,3.20
2019,08,20,08,44,1.60
2019,08,20,08,49,1.60
2019,08,20,08,50,1.60
2019,08,20,08,53,1.60
2019,08,20,08,56,6.40
2019,08,20,08,57,1.60
2019,08,20,08,59,1.60
2019,08,20,09,01,3.20
2019,08,20,09,03,3.20
2019,08,20,09,04,6.40
2019,08,20,09,06,9.60
2019,08,20,09,07,11.30
2019,08,20,09,08,12.90
2019,08,20,09,09,9.60
2019,08,20,09,13,1.60
2019,08,20,09,15,8.10
2019,08,20,09,16,8.10
2019,08,20,09,17,1.60
2019,08,20,09,18,1.60
2019,08,20,09,20,1.60
2019,08,20,09,21,8.10
2019,08,20,09,22,1.60
2019,08,20,09,23,8.10
2019,08,20,09,24,6.40
2019,08,20,09,25,6.40
2019,08,20,09,26,6.40
2019,08,20,09,27,6.40
2019,08,20,09,28,6.40
2019,08,20,09,29,1.60
2019,08,20,09,30,3.20
2019,08,20,09,31,1.60
2019,08,20,09,32,3.20
2019,08,20,09,34,3.20
2019,08,20,09,38,1.60
2019,08,20,09,39,1.60
2019,08,20,09,40,1.60
2019,08,20,09,41,1.60
2019,08,20,09,43,3.20
2019,08,20,09,44,3.20
2019,08,20,09,47,8.10
2019,08,20,09,48,3.20
2019,08,20,09,50,1.60
2019,08,20,09,51,6.40
2019,08,20,09,53,1.60
2019,08,20,09,55,3.20
2019,08,20,09,57,1.60
2019,08,20,09,58,8.10
2019,08,20,09,59,9.60
2019,08,20,10,00,8.10
2019,08,20,10,01,1.60
2019,08,20,10,02,8.10
2019,08,20,10,03,1.60
2019,08,20,10,05,9.60
2019,08,20,10,06,11.30
2019,08,20,10,07,17.70
2019,08,20,10,08,6.40
2019,08,20,10,09,6.40
2019,08,20,10,10,11.30
2019,08,20,10,11,9.60
2019,08,20,10,12,9.60
2019,08,20,10,13,8.10
2019,08,20,10,14,6.40
2019,08,20,10,15,8.10
2019,08,20,10,16,9.60
2019,08,20,10,17,3.20
2019,08,20,10,18,9.60
2019,08,20,10,19,8.10
2019,08,20,10,20,9.60
2019,08,20,10,21,12.90
2019,08,20,10,22,6.40
2019,08,20,10,23,6.40
2019,08,20,10,24,1.60
2019,08,20,10,25,11.30
2019,08,20,10,26,9.60
2019,08,20,10,27,9.60
2019,08,20,10,28,3.20
2019,08,20,10,29,3.20
2019,08,20,10,30,9.60
2019,08,20,10,31,1.60
2019,08,20,10,32,11.30
2019,08,20,10,33,8.10
2019,08,20,10,34,11.30
2019,08,20,10,35,14.50
2019,08,20,10,36,12.90
2019,08,20,10,37,14.50
2019,08,20,10,38,9.60
2019,08,20,10,39,11.30
2019,08,20,10,40,8.10
2019,08,20,10,41,8.10
2019,08,20,10,42,17.70
2019,08,20,10,43,6.40
2019,08,20,10,44,6.40
2019,08,20,10,46,1.60
2019,08,20,10,47,1.60
2019,08,20,10,50,1.60
2019,08,20,10,51,1.60
2019,08,20,10,52,3.20
2019,08,20,10,53,12.90
2019,08,20,10,54,8.10
2019,08,20,10,55,11.30
2019,08,20,10,56,11.30
2019,08,20,10,57,1.60
2019,08,20,10,58,9.60
2019,08,20,10,59,8.10
2019,08,20,11,00,9.60
2019,08,20,11,01,12.90
2019,08,20,11,02,14.50
2019,08,20,11,03,11.30
2019,08,20,11,04,19.30
2019,08,20,11,05,16.10
2019,08,20,11,06,8.10
2019,08,20,11,07,12.90
2019,08,20,11,08,16.10
2019,08,20,11,09,12.90
2019,08,20,11,10,11.30
2019,08,20,11,11,6.40
2019,08,20,11,12,11.30
2019,08,20,11,13,6.40
2019,08,20,11,14,12.90
2019,08,20,11,15,8.10
2019,08,20,11,16,19.30
2019,08,20,11,17,19.30
2019,08,20,11,18,12.90
2019,08,20,11,19,3.20
2019,08,20,11,20,14.50
2019,08,20,11,21,9.60
2019,08,20,11,22,6.40
2019,08,20,11,23,11.30
2019,08,20,11,24,9.60
2019,08,20,11,25,8.10
2019,08,20,11,26,12.90
2019,08,20,11,27,14.50
2019,08,20,11,28,9.60
2019,08,20,11,29,12.90
2019,08,20,11,30,17.70
2019,08,20,11,31,16.10
2019,08,20,11,32,11.30
2019,08,20,11,33,19.30
2019,08,20,11,34,12.90
2019,08,20,11,35,3.20
2019,08,20,11,36,16.10
2019,08,20,11,37,16.10
2019,08,20,11,38,12.90
2019,08,20,11,39,8.10
2019,08,20,11,40,14.50
2019,08,20,11,41,12.90
2019,08,20,11,42,14.50
2019,08,20,11,43,20.90
2019,08,20,11,44,17.70
2019,08,20,11,45,17.70
2019,08,20,11,46,14.50
2019,08,20,11,47,22.50
2019,08,20,11,48,19.30
2019,08,20,11,49,19.30
2019,08,20,11,50,20.90
2019,08,20,11,51,20.90
2019,08,20,11,52,14.50
2019,08,20,11,53,22.50
2019,08,20,11,54,20.90
2019,08,20,11,55,17.70
2019,08,20,11,56,20.90
2019,08,20,11,57,17.70
2019,08,20,11,58,24.20
2019,08,20,11,59,17.70
2019,08,20,12,00,14.50
2019,08,20,12,01,16.10
2019,08,20,12,02,20.90
2019,08,20,12,03,22.50
2019,08,20,12,04,20.90
2019,08,20,12,05,17.70
2019,08,20,12,06,14.50
2019,08,20,12,07,14.50
2019,08,20,12,08,11.30
2019,08,20,12,09,19.30
2019,08,20,12,10,11.30
2019,08,20,12,11,25.70
2019,08,20,12,12,22.50
2019,08,20,12,13,19.30
2019,08,20,12,14,19.30
2019,08,20,12,15,20.90
2019,08,20,12,16,14.50
2019,08,20,12,17,9.60
2019,08,20,12,18,19.30
2019,08,20,12,19,11.30
2019,08,20,12,20,16.10
2019,08,20,12,21,17.70
2019,08,20,12,22,14.50
2019,08,20,12,23,8.10
2019,08,20,12,24,9.60
2019,08,20,12,25,12.90
2019,08,20,12,26,11.30
2019,08,20,12,27,9.60
2019,08,20,12,28,9.60
2019,08,20,12,29,9.60
2019,08,20,12,30,9.60
2019,08,20,12,31,9.60
2019,08,20,12,32,19.30
2019,08,20,12,33,20.90
2019,08,20,12,34,14.50
2019,08,20,12,35,20.90
2019,08,20,12,36,19.30
2019,08,20,12,37,19.30
2019,08,20,12,38,14.50
2019,08,20,12,39,17.70
2019,08,20,12,40,17.70
2019,08,20,12,41,20.90
2019,08,20,12,42,20.90
2019,08,20,12,43,12.90
2019,08,20,12,44,19.30
2019,08,20,12,45,22.50
2019,08,20,12,46,20.90
2019,08,20,12,47,19.30
2019,08,20,12,48,17.70
2019,08,20,12,49,16.10
2019,08,20,12,50,20.90
2019,08,20,12,51,17.70
2019,08,20,12,52,14.50
2019,08,20,12,53,11.30
2019,08,20,12,54,11.30
2019,08,20,12,55,9.60
2019,08,20,12,56,19.30
2019,08,20,12,57,14.50
2019,08,20,12,58,17.70
2019,08,20,12,59,20.90
2019,08,20,13,00,22.50
2019,08,20,13,01,17.70
2019,08,20,13,02,22.50
2019,08,20,13,03,17.70
2019,08,20,13,04,14.50
2019,08,20,13,05,20.90
2019,08,20,13,06,14.50
2019,08,20,13,07,19.30
2019,08,20,13,08,17.70
2019,08,20,13,09,32.20
2019,08,20,13,10,20.90
2019,08,20,13,11,20.90
2019,08,20,13,12,16.10
2019,08,20,13,13,33.80
2019,08,20,13,14,17.70
2019,08,20,13,15,22.50
2019,08,20,13,16,30.60
2019,08,20,13,17,32.20
2019,08,20,13,18,24.20
2019,08,20,13,19,12.90
2019,08,20,13,20,12.90
2019,08,20,13,21,14.50
2019,08,20,13,22,14.50
2019,08,20,13,23,11.30
2019,08,20,13,24,14.50
2019,08,20,13,25,16.10
2019,08,20,13,26,16.10
2019,08,20,13,27,12.90
2019,08,20,13,28,12.90
2019,08,20,13,29,24.20
2019,08,20,13,30,25.70
2019,08,20,13,31,22.50
2019,08,20,13,32,9.60
2019,08,20,13,33,14.50
2019,08,20,13,34,16.10
2019,08,20,13,35,17.70
2019,08,20,13,36,17.70
2019,08,20,13,37,20.90
2019,08,20,13,38,17.70
2019,08,20,13,39,17.70
2019,08,20,13,40,14.50
2019,08,20,13,41,22.50
2019,08,20,13,42,19.30
2019,08,20,13,43,27.40
2019,08,20,13,44,22.50
2019,08,20,13,45,30.60
2019,08,20,13,46,19.30
2019,08,20,13,47,20.90
2019,08,20,13,48,27.40
2019,08,20,13,49,27.40
2019,08,20,13,50,17.70
2019,08,20,13,51,16.10
2019,08,20,13,52,22.50
2019,08,20,13,53,27.40
2019,08,20,13,54,25.70
2019,08,20,13,55,22.50
2019,08,20,13,56,19.30
2019,08,20,13,57,29.00
2019,08,20,13,58,20.90
2019,08,20,13,59,20.90
2019,08,20,14,00,19.30
2019,08,20,14,01,16.10
2019,08,20,14,02,22.50
2019,08,20,14,03,16.10
2019,08,20,14,04,17.70
2019,08,20,14,05,19.30
2019,08,20,14,06,17.70
2019,08,20,14,07,17.70
2019,08,20,14,08,22.50
2019,08,20,14,09,19.30
2019,08,20,14,10,17.70
2019,08,20,14,11,19.30
2019,08,20,14,12,22.50
2019,08,20,14,13,14.50
2019,08,20,14,14,19.30
2019,08,20,14,15,9.60
2019,08,20,14,16,12.90
2019,08,20,14,17,14.50
2019,08,20,14,18,9.60
2019,08,20,14,19,22.50
2019,08,20,14,20,19.30
2019,08,20,14,21,16.10
2019,08,20,14,22,12.90
2019,08,20,14,23,14.50
2019,08,20,14,24,22.50
2019,08,20,14,25,16.10
2019,08,20,14,26,24.20
2019,08,20,14,27,24.20
2019,08,20,14,28,17.70
2019,08,20,14,29,24.20
2019,08,20,14,30,16.10
2019,08,20,14,31,17.70
2019,08,20,14,32,16.10
2019,08,20,14,33,22.50
2019,08,20,14,34,20.90
2019,08,20,14,35,12.90
2019,08,20,14,36,9.60
2019,08,20,14,37,19.30
2019,08,20,14,38,19.30
2019,08,20,14,39,24.20
2019,08,20,14,40,17.70
2019,08,20,14,41,19.30
2019,08,20,14,42,11.30
2019,08,20,14,43,14.50
2019,08,20,14,44,14.50
2019,08,20,14,45,12.90
2019,08,20,14,46,27.40
2019,08,20,14,47,17.70
2019,08,20,14,48,17.70
2019,08,20,14,49,20.90
2019,08,20,14,50,17.70
2019,08,20,14,51,14.50
2019,08,20,14,52,19.30
2019,08,20,14,53,22.50
2019,08,20,14,54,12.90
2019,08,20,14,55,1.60
2019,08,20,14,56,9.60
2019,08,20,14,57,17.70
2019,08,20,14,58,16.10
2019,08,20,14,59,19.30
2019,08,20,15,00,14.50
2019,08,20,15,01,12.90
2019,08,20,15,02,11.30
2019,08,20,15,03,14.50
2019,08,20,15,04,24.20
2019,08,20,15,05,17.70
2019,08,20,15,06,22.50
2019,08,20,15,07,16.10
2019,08,20,15,08,14.50
2019,08,20,15,09,19.30
2019,08,20,15,10,19.30
2019,08,20,15,11,12.90
2019,08,20,15,12,19.30
2019,08,20,15,13,24.20
2019,08,20,15,14,19.30
2019,08,20,15,15,30.60
2019,08,20,15,16,27.40
2019,08,20,15,17,29.00
2019,08,20,15,18,16.10
2019,08,20,15,19,27.40
2019,08,20,15,20,27.40
2019,08,20,15,21,33.80
2019,08,20,15,22,20.90
2019,08,20,15,23,20.90
2019,08,20,15,24,25.70
2019,08,20,15,25,25.70
2019,08,20,15,26,16.10
2019,08,20,15,27,25.70
2019,08,20,15,28,22.50
2019,08,20,15,29,19.30
2019,08,20,15,30,16.10
2019,08,20,15,31,20.90
2019,08,20,15,32,22.50
2019,08,20,15,33,19.30
2019,08,20,15,34,25.70
2019,08,20,15,35,24.20
2019,08,20,15,36,27.40
2019,08,20,15,37,29.00
2019,08,20,15,38,29.00
2019,08,20,15,39,19.30
2019,08,20,15,40,9.60
2019,08,20,15,41,9.60
2019,08,20,15,42,17.70
2019,08,20,15,43,11.30
2019,08,20,15,44,24.20
2019,08,20,15,45,22.50
2019,08,20,15,46,24.20
2019,08,20,15,47,20.90
2019,08,20,15,48,27.40
2019,08,20,15,49,29.00
2019,08,20,15,50,24.20
2019,08,20,15,51,20.90
2019,08,20,15,52,19.30
2019,08,20,15,53,22.50
2019,08,20,15,54,22.50
2019,08,20,15,55,12.90
2019,08,20,15,56,19.30
2019,08,20,15,57,17.70
2019,08,20,15,58,19.30
2019,08,20,15,59,25.70
2019,08,20,16,00,22.50
2019,08,20,16,01,17.70
2019,08,20,16,02,14.50
2019,08,20,16,03,24.20
2019,08,20,16,04,19.30
2019,08,20,16,05,29.00
2019,08,20,16,06,29.00
2019,08,20,16,07,24.20
2019,08,20,16,08,27.40
2019,08,20,16,09,32.20
2019,08,20,16,10,32.20
2019,08,20,16,11,27.40
2019,08,20,16,12,32.20
2019,08,20,16,13,20.90
2019,08,20,16,14,20.90
2019,08,20,16,15,17.70
2019,08,20,16,16,16.10
2019,08,20,16,17,25.70
2019,08,20,16,18,20.90
2019,08,20,16,19,14.50
2019,08,20,16,20,22.50
2019,08,20,16,21,20.90
2019,08,20,16,22,20.90
2019,08,20,16,23,29.00
2019,08,20,16,24,27.40
2019,08,20,16,25,20.90
2019,08,20,16,26,24.20
2019,08,20,16,27,16.10
2019,08,20,16,28,9.60
2019,08,20,16,29,12.90
2019,08,20,16,30,19.30
2019,08,20,16,31,17.70
2019,08,20,16,32,22.50
2019,08,20,16,33,24.20
2019,08,20,16,34,14.50
2019,08,20,16,35,24.20
2019,08,20,16,36,24.20
2019,08,20,16,37,24.20
2019,08,20,16,38,25.70
2019,08,20,16,39,32.20
2019,08,20,16,40,25.70
2019,08,20,16,41,25.70
2019,08,20,16,42,17.70
2019,08,20,16,43,14.50
2019,08,20,16,44,14.50
2019,08,20,16,45,16.10
2019,08,20,16,46,22.50
2019,08,20,16,47,20.90
2019,08,20,16,48,22.50
2019,08,20,16,49,9.60
2019,08,20,16,50,19.30
2019,08,20,16,51,24.20
2019,08,20,16,52,19.30
2019,08,20,16,53,20.90
2019,08,20,16,54,19.30
2019,08,20,16,55,12.90
2019,08,20,16,56,12.90
2019,08,20,16,57,9.60
2019,08,20,16,58,19.30
2019,08,20,16,59,19.30
2019,08,20,17,00,17.70
2019,08,20,17,01,22.50
2019,08,20,17,02,8.10
2019,08,20,17,03,14.50
2019,08,20,17,04,12.90
2019,08,20,17,05,24.20
2019,08,20,17,06,20.90
2019,08,20,17,07,14.50
2019,08,20,17,08,17.70
2019,08,20,17,09,14.50
2019,08,20,17,10,16.10
2019,08,20,17,11,19.30
2019,08,20,17,12,11.30
2019,08,20,17,13,14.50
2019,08,20,17,14,12.90
2019,08,20,17,15,14.50
2019,08,20,17,16,16.10
2019,08,20,17,17,16.10
2019,08,20,17,18,9.60
2019,08,20,17,19,12.90
2019,08,20,17,20,14.50
2019,08,20,17,21,14.50
2019,08,20,17,22,14.50
2019,08,20,17,23,9.60
2019,08,20,17,24,16.10
2019,08,20,17,25,11.30
2019,08,20,17,26,11.30
2019,08,20,17,27,17.70
2019,08,20,17,28,14.50
2019,08,20,17,29,6.40
2019,08,20,17,30,9.60
2019,08,20,17,31,12.90
2019,08,20,17,32,11.30
2019,08,20,17,33,9.60
2019,08,20,17,34,9.60
2019,08,20,17,35,8.10
2019,08,20,17,36,19.30
2019,08,20,17,37,17.70
2019,08,20,17,38,9.60
2019,08,20,17,39,9.60
2019,08,20,17,40,9.60
2019,08,20,17,41,8.10
2019,08,20,17,42,11.30
2019,08,20,17,43,8.10
2019,08,20,17,44,20.90
2019,08,20,17,45,8.10
2019,08,20,17,46,14.50
2019,08,20,17,47,8.10
2019,08,20,17,48,11.30
2019,08,20,17,49,12.90
2019,08,20,17,50,9.60
2019,08,20,17,51,11.30
2019,08,20,17,52,17.70
2019,08,20,17,53,8.10
2019,08,20,17,54,4.80
2019,08,20,17,55,11.30
2019,08,20,17,56,1.60
2019,08,20,17,57,16.10
2019,08,20,17,58,9.60
2019,08,20,17,59,6.40
2019,08,20,18,00,1.60
2019,08,20,18,01,9.60
2019,08,20,18,02,11.30
2019,08,20,18,03,8.10
2019,08,20,18,04,9.60
2019,08,20,18,05,8.10
2019,08,20,18,06,6.40
2019,08,20,18,07,9.60
2019,08,20,18,08,8.10
2019,08,20,18,09,17.70
2019,08,20,18,10,14.50
2019,08,20,18,11,9.60
2019,08,20,18,12,8.10
2019,08,20,18,13,17.70
2019,08,20,18,14,6.40
2019,08,20,18,15,17.70
2019,08,20,18,16,11.30
2019,08,20,18,17,19.30
2019,08,20,18,18,20.90
2019,08,20,18,19,11.30
2019,08,20,18,20,12.90
2019,08,20,18,21,8.10
2019,08,20,18,22,17.70
2019,08,20,18,23,12.90
2019,08,20,18,24,14.50
2019,08,20,18,25,8.10
2019,08,20,18,26,11.30
2019,08,20,18,27,11.30
2019,08,20,18,28,20.90
2019,08,20,18,29,14.50
2019,08,20,18,30,14.50
2019,08,20,18,31,12.90
2019,08,20,18,32,14.50
2019,08,20,18,33,8.10
2019,08,20,18,34,12.90
2019,08,20,18,35,16.10
2019,08,20,18,36,11.30
2019,08,20,18,37,14.50
2019,08,20,18,38,12.90
2019,08,20,18,39,11.30
2019,08,20,18,40,8.10
2019,08,20,18,41,14.50
2019,08,20,18,42,9.60
2019,08,20,18,43,12.90
2019,08,20,18,44,9.60
2019,08,20,18,45,17.70
2019,08,20,18,46,11.30
2019,08,20,18,47,20.90
2019,08,20,18,48,17.70
2019,08,20,18,49,11.30
2019,08,20,18,50,8.10
2019,08,20,18,51,19.30
2019,08,20,18,52,9.60
2019,08,20,18,53,6.40
2019,08,20,18,54,6.40
2019,08,20,18,55,8.10
2019,08,20,18,56,9.60
2019,08,20,18,57,3.20
2019,08,20,18,58,9.60
2019,08,20,18,59,9.60
2019,08,20,19,00,8.10
2019,08,20,19,01,11.30
2019,08,20,19,02,9.60
2019,08,20,19,03,1.60
2019,08,20,19,04,6.40
2019,08,20,19,05,9.60
2019,08,20,19,06,1.60
2019,08,20,19,07,8.10
2019,08,20,19,08,11.30
2019,08,20,19,09,8.10
2019,08,20,19,10,3.20
2019,08,20,19,11,11.30
2019,08,20,19,12,12.90
2019,08,20,19,13,6.40
2019,08,20,19,14,11.30
2019,08,20,19,15,8.10
2019,08,20,19,16,14.50
2019,08,20,19,17,17.70
2019,08,20,19,18,19.30
2019,08,20,19,19,19.30
2019,08,20,19,20,14.50
2019,08,20,19,21,20.90
2019,08,20,19,22,8.10
2019,08,20,19,23,20.90
2019,08,20,19,24,19.30
2019,08,20,19,25,19.30
2019,08,20,19,26,16.10
2019,08,20,19,27,19.30
2019,08,20,19,28,11.30
2019,08,20,19,29,22.50
2019,08,20,19,30,22.50
2019,08,20,19,31,20.90
2019,08,20,19,32,17.70
2019,08,20,19,33,16.10
2019,08,20,19,34,9.60
2019,08,20,19,35,11.30
2019,08,20,19,36,20.90
2019,08,20,19,37,25.70
2019,08,20,19,38,17.70
2019,08,20,19,39,16.10
2019,08,20,19,40,20.90
2019,08,20,19,41,25.70
2019,08,20,19,42,19.30
2019,08,20,19,43,20.90
2019,08,20,19,44,17.70
2019,08,20,19,45,29.00
2019,08,20,19,46,11.30
2019,08,20,19,47,22.50
2019,08,20,19,48,16.10
2019,08,20,19,49,17.70
2019,08,20,19,50,19.30
2019,08,20,19,51,16.10
2019,08,20,19,52,20.90
2019,08,20,19,53,27.40
2019,08,20,19,54,20.90
2019,08,20,19,55,19.30
2019,08,20,19,56,19.30
2019,08,20,19,57,17.70
2019,08,20,19,58,17.70
2019,08,20,19,59,17.70
2019,08,20,20,00,17.70
2019,08,20,20,01,14.50
2019,08,20,20,02,22.50
2019,08,20,20,03,19.30
2019,08,20,20,04,11.30
2019,08,20,20,05,27.40
2019,08,20,20,06,19.30
2019,08,20,20,07,12.90
2019,08,20,20,08,17.70
2019,08,20,20,09,19.30
2019,08,20,20,10,12.90
2019,08,20,20,11,20.90
2019,08,20,20,12,11.30
2019,08,20,20,13,17.70
2019,08,20,20,14,17.70
2019,08,20,20,15,12.90
2019,08,20,20,16,24.20
2019,08,20,20,17,19.30
2019,08,20,20,18,17.70
2019,08,20,20,19,14.50
2019,08,20,20,20,19.30
2019,08,20,20,21,17.70
2019,08,20,20,22,12.90
2019,08,20,20,23,14.50
2019,08,20,20,24,24.20
2019,08,20,20,25,17.70
2019,08,20,20,26,9.60
2019,08,20,20,27,17.70
2019,08,20,20,28,12.90
2019,08,20,20,29,20.90
2019,08,20,20,30,22.50
2019,08,20,20,31,17.70
2019,08,20,20,32,14.50
2019,08,20,20,33,17.70
2019,08,20,20,34,11.30
2019,08,20,20,35,20.90
2019,08,20,20,36,11.30
2019,08,20,20,37,20.90
2019,08,20,20,38,16.10
2019,08,20,20,39,20.90
2019,08,20,20,40,27.40
2019,08,20,20,41,12.90
2019,08,20,20,42,16.10
2019,08,20,20,43,22.50
2019,08,20,20,44,27.40
2019,08,20,20,45,22.50
2019,08,20,20,46,25.70
2019,08,20,20,47,17.70
2019,08,20,20,48,17.70
2019,08,20,20,49,27.40
2019,08,20,20,50,27.40
2019,08,20,20,51,19.30
2019,08,20,20,52,25.70
2019,08,20,20,53,27.40
2019,08,20,20,54,29.00
2019,08,20,20,55,19.30
2019,08,20,20,56,20.90
2019,08,20,20,57,20.90
2019,08,20,20,58,22.50
2019,08,20,20,59,14.50
2019,08,20,21,00,24.20
2019,08,20,21,01,24.20
2019,08,20,21,02,19.30
2019,08,20,21,03,25.70
2019,08,20,21,04,27.40
2019,08,20,21,05,22.50
2019,08,20,21,06,20.90
2019,08,20,21,07,22.50
2019,08,20,21,08,30.60
2019,08,20,21,09,30.60
2019,08,20,21,10,12.90
2019,08,20,21,11,25.70
2019,08,20,21,12,30.60
2019,08,20,21,13,12.90
2019,08,20,21,14,27.40
2019,08,20,21,15,12.90
2019,08,20,21,16,11.30
2019,08,20,21,17,17.70
2019,08,20,21,18,11.30
2019,08,20,21,19,11.30
2019,08,20,21,20,17.70
2019,08,20,21,21,8.10
2019,08,20,21,22,12.90
2019,08,20,21,23,8.10
2019,08,20,21,24,17.70
2019,08,20,21,25,12.90
2019,08,20,21,26,12.90
2019,08,20,21,27,9.60
2019,08,20,21,28,8.10
2019,08,20,21,29,14.50
2019,08,20,21,30,20.90
2019,08,20,21,31,12.90
2019,08,20,21,32,20.90
2019,08,20,21,33,19.30
2019,08,20,21,34,22.50
2019,08,20,21,35,19.30
2019,08,20,21,36,25.70
2019,08,20,21,37,19.30
2019,08,20,21,38,17.70
2019,08,20,21,39,11.30
2019,08,20,21,40,17.70
2019,08,20,21,41,17.70
2019,08,20,21,42,30.60
2019,08,20,21,43,12.90
2019,08,20,21,44,6.40
2019,08,20,21,45,19.30
2019,08,20,21,46,20.90
2019,08,20,21,47,9.60
2019,08,20,21,48,17.70
2019,08,20,21,49,17.70
2019,08,20,21,50,16.10
2019,08,20,21,51,17.70
2019,08,20,21,52,14.50
2019,08,20,21,53,11.30
2019,08,20,21,54,9.60
2019,08,20,21,55,9.60
2019,08,20,21,56,11.30
2019,08,20,21,57,12.90
2019,08,20,21,58,12.90
2019,08,20,21,59,11.30
2019,08,20,22,00,12.90
2019,08,20,22,01,3.20
2019,08,20,22,02,11.30
2019,08,20,22,03,9.60
2019,08,20,22,04,17.70
2019,08,20,22,05,19.30
2019,08,20,22,06,14.50
2019,08,20,22,07,11.30
2019,08,20,22,08,8.10
2019,08,20,22,09,20.90
2019,08,20,22,10,19.30
2019,08,20,22,11,33.80
2019,08,20,22,12,16.10
2019,08,20,22,13,11.30
2019,08,20,22,14,17.70
2019,08,20,22,15,12.90
2019,08,20,22,16,19.30
2019,08,20,22,17,19.30
2019,08,20,22,18,22.50
2019,08,20,22,19,11.30
2019,08,20,22,20,20.90
2019,08,20,22,21,17.70
2019,08,20,22,22,22.50
2019,08,20,22,23,24.20
2019,08,20,22,24,24.20
2019,08,20,22,25,17.70
2019,08,20,22,26,14.50
2019,08,20,22,27,11.30
2019,08,20,22,28,11.30
2019,08,20,22,29,14.50
2019,08,20,22,30,17.70
2019,08,20,22,31,11.30
2019,08,20,22,32,16.10
2019,08,20,22,33,20.90
2019,08,20,22,34,24.20
2019,08,20,22,35,30.60
2019,08,20,22,36,24.20
2019,08,20,22,37,17.70
2019,08,20,22,38,14.50
2019,08,20,22,39,6.40
2019,08,20,22,40,22.50
2019,08,20,22,41,16.10
2019,08,20,22,42,9.60
2019,08,20,22,43,20.90
2019,08,20,22,44,38.60
2019,08,20,22,45,24.20
2019,08,20,22,46,27.40
2019,08,20,22,47,24.20
2019,08,20,22,48,16.10
2019,08,20,22,49,22.50
2019,08,20,22,50,29.00
2019,08,20,22,51,24.20
2019,08,20,22,52,22.50
2019,08,20,22,53,22.50
2019,08,20,22,54,16.10
2019,08,20,22,55,24.20
2019,08,20,22,56,27.40
2019,08,20,22,57,20.90
2019,08,20,22,58,22.50
2019,08,20,22,59,16.10
2019,08,20,23,00,29.00
2019,08,20,23,01,24.20
2019,08,20,23,02,20.90
2019,08,20,23,03,16.10
2019,08,20,23,04,17.70
2019,08,20,23,05,24.20
2019,08,20,23,06,29.00
2019,08,20,23,07,19.30
2019,08,20,23,08,14.50
2019,08,20,23,09,20.90
2019,08,20,23,10,22.50
2019,08,20,23,11,12.90
2019,08,20,23,12,24.20
2019,08,20,23,13,24.20
2019,08,20,23,14,22.50
2019,08,20,23,15,20.90
2019,08,20,23,16,24.20
2019,08,20,23,17,24.20
2019,08,20,23,18,25.70
2019,08,20,23,19,19.30
2019,08,20,23,20,25.70
2019,08,20,23,21,17.70
2019,08,20,23,22,9.60
2019,08,20,23,23,25.70
2019,08,20,23,24,16.10
2019,08,20,23,25,20.90
2019,08,20,23,26,8.10
2019,08,20,23,27,9.60
2019,08,20,23,28,17.70
2019,08,20,23,29,20.90
2019,08,20,23,30,29.00
2019,08,20,23,31,25.70
2019,08,20,23,32,9.60
2019,08,20,23,33,11.30
2019,08,20,23,34,17.70
2019,08,20,23,35,20.90
2019,08,20,23,36,35.40
2019,08,20,23,37,14.50
2019,08,20,23,38,14.50
2019,08,20,23,39,9.60
2019,08,20,23,40,16.10
2019,08,20,23,41,20.90
2019,08,20,23,42,17.70
2019,08,20,23,43,20.90
2019,08,20,23,44,37.00
2019,08,20,23,45,25.70
2019,08,20,23,46,11.30
2019,08,20,23,47,22.50
2019,08,20,23,48,20.90
2019,08,20,23,49,19.30
2019,08,20,23,50,14.50
2019,08,20,23,51,9.60
2019,08,20,23,52,20.90
2019,08,20,23,53,17.70
2019,08,20,23,54,14.50
2019,08,20,23,55,22.50
2019,08,20,23,56,12.90
2019,08,20,23,57,22.50
2019,08,20,23,58,24.20
2019,08,20,23,59,30.60
